Location: Hiekkapohja
(62.3333°N, 25.7833°E)
Time: 18:53:31
(UTC+00:00)

Meteor 2-5 Rocket - Pass Details

Date: 07 August 2020
Orbit: 833 x 912 km, 81.2° (Epoch: 28 September)

Event Time Altitude Azimuth Distance (km) Brightness Sun altitude
Rises 00:14:07 0° 341° (NNW) 3,485 7.6 -8.3°
Reaches altitude 10° 00:16:36 10° 339° (NNW) 2,530 6.8 -8.2°
Maximum altitude 00:22:17 67° 258° (WSW) 928 3.8 -7.9°
Drops below altitude 10° 00:27:49 10° 177° (S) 2,466 5.6 -7.6°
Enters shadow 00:29:27 - 176° (S) 3,094 6.1 -7.5°
